GALAXY 18 (G-18)

Last updated on Fri Oct 11 2024 00:02:38 GMT+0000 (Coordinated Universal Time)

1 32951U 08024A 24284.61206733 .00000030 00000+0 00000+0 0 9993 2 32951 0.0134 244.5636 0002945 304.4340 288.0674 1.00271218 39692
UTC large
Height (km)
Speed (km/s)
/
Latitude / Longitude
Inclination (degrees)
Orbital Period (minutes)
Azimuth
Elevation
Range (km)
Doppler Factor

Next 0 passes for location: London (51.5072 / 0.1276)

Sorry there are no passes over London.